Darien, Wisconsin
Current Conditions -  °F | °C
As of 2:15 AM on Monday 24 Nov 2014 (Local Time) from KJVL Reporting Station
Moderate Fog Moderate Fog  
Wind Chill: 45°   Ceiling: 200
Heat Index: 45°   Visibility: 0.5mi
Dew Point: 43°   Wind: 0mph
Humidity: 93%   Direction: NA
Pressure: 29.06"   Gusts: NA
Location:  42.6°N, 88.71°W
Report Text: KJVL 240815Z AUTO 00000KT 1/2SM FG OVC002 07/06 A2906 RMK AO2
Loading
Personal Weather Stations






























Interactive Weather Map New forecast layout! Learn more

10-Day Weather Forecast

Advertisements
Track Severe Weather on mobile